View from above orbital plane
|
View from above satellite
|
Ground track
|
The orbit data is extracted from the following two-line orbital elements,
1 39440U 13066AA 21016.82155208 .00000298 00000-0 48105-4 0 9998
2 39440 97.6570 353.8347 0080246 8.6204 351.6364 14.76141522384050
Epoch (UTC): | 16 January 2021 19:43:02 |
Eccentricity: | 0.0080246 |
inclination: | 97.6570° |
perigee height: | 585 km |
apogee height: | 698 km |
right ascension of ascending node: | 353.8347° |
argument of perigee: | 8.6204° |
revolutions per day: | 14.76141522 |
mean anomaly at epoch: | 351.6364° |
orbit number at epoch: | 38405 |
The dashed part of the orbit path shows where the satellite is in the earth's shadow,
|
|